This demonstration page uses our WeatherBlox Daily Observations layout. Learn more.

Left ArrowRight Arrow

Hourly Observations for August 27, 2015

Temp ( °F °C ) Dew Point ( °F °C ) Humidity (%) Winds ( mph kmh ) Pressure ( in mb ) Visibility ( mi km ) Precip ( " mm )
12:51 am 00:51 Clear 75 23.9 65 18.3 71 71 NW 5 7 29.94 1014 10 16 0.00 0.00
1:51 am 01:51 Clear 75 23.9 66 18.9 74 74 NNW 6 9 29.94 1014 10 16 0.00 0.00
2:51 am 02:51 Mostly Clear 76 24.4 66 18.9 72 72 Calm 29.92 1013 10 16 0.00 0.00
3:51 am 03:51 Mostly Cloudy 76 24.4 66 18.9 72 72 Calm 29.93 1013 10 16 0.00 0.00
4:51 am 04:51 Cloudy with Light Rain 75 23.9 68 20 79 79 SSW 5 7 29.93 1014 10 16 0.00 0.03
5:51 am 05:51 Partly Cloudy 73 22.8 68 20 84 84 NNW 3 6 29.96 1015 10 16 0.00 0.03
6:27 am 06:27 Mostly Cloudy with Thunderstorms 73 22.8 68 20 84 84 NW 5 7 30.00 1016 10 16 0.00 0.03
6:48 am 06:48 Cloudy with Nearby Thunderstorms 73 23 70 21 89 89 W 3 6 30.00 1016 4 6 0.01 0.25
6:51 am 06:51 Cloudy with Nearby Thunderstorms 72 22.2 69 20.6 91 91 W 5 7 30.01 1016 4 6 0.01 0.25
6:56 am 06:56 Cloudy with Nearby Thunderstorms 72 22.2 68 20 87 87 Calm 30.00 1016 2 2 0.01 0.25
7:00 am 07:00 Cloudy with Strong Thunderstorms 71 21.7 68 20 90 90 Calm 30.00 1016 1 1 0.04 1.02
7:10 am 07:10 Cloudy with Thunderstorms 71 21.7 68 20 90 90 ENE 7 11 30.00 1016 2 3 0.11 2.79
7:20 am 07:20 Cloudy with Thunderstorms 71 21.7 68 20 90 90 E 9 15 30.00 1016 4 6 0.13 3.30
7:51 am 07:51 Cloudy with Thunderstorms 72 22.2 68 20 87 87 ENE 10 17 30.01 1016 9 14 0.14 3.56
7:54 am 07:54 Cloudy with Light Rain 72 22.2 67 19.4 84 84 E 9 15 30.00 1016 9 14 0.00 0.03
8:51 am 08:51 Sunny 73 22.8 66 18.9 79 79 S 8 13 30.01 1016 10 16 0.00 0.03
9:51 am 09:51 Sunny 79 26.1 67 19.4 67 67 ESE 9 15 30.02 1017 10 16 0.00 0.00
10:51 am 10:51 Sunny 84 28.9 61 16.1 46 46 E 8 13 30.00 1016 10 16 0.00 0.00
11:51 am 11:51 Sunny 86 30 62 16.7 45 45 SSE 6 9 29.98 1015 10 16 0.00 0.00
12:51 pm 12:51 Sunny 87 30.6 62 16.7 43 43 ENE 6 9 29.95 1014 10 16 0.00 0.00
1:51 pm 13:51 Sunny 89 31.7 61 16.1 39 39 NE 5 7 29.90 1013 10 16 0.00 0.00
2:51 pm 14:51 Sunny 92 33.3 57 13.9 31 31 Calm 29.87 1012 10 16 0.00 0.00
3:51 pm 15:51 Sunny 94 34.4 58 14.4 30 30 VRB 3 6 29.85 1011 10 16 0.00 0.00
4:39 pm 16:39 Partly Cloudy 88 31.1 56 13.3 34 34 NNE 23 37 29.77 1008 10 16 0.00 0.00
4:51 pm 16:51 Partly Cloudy 88 31.1 56 13.3 34 34 NNE 24 39 29.86 1011 10 16 0.00 0.00
5:24 pm 17:24 Partly Cloudy with Nearby Thunderstorms 86 30 54 12.2 33 33 NNE 25 41 29.80 1009 10 16 0.00 0.00
5:51 pm 17:51 Mostly Cloudy 80 26.7 60 15.6 51 51 W 14 22 29.91 1013 10 16 0.00 0.00
6:15 pm 18:15 Cloudy with Nearby Thunderstorms 77 25 63 17.2 62 62 W 17 28 29.91 1013 10 16 0.00 0.00
6:34 pm 18:34 Mostly Cloudy with Light Rain 77 25 63 17.2 62 62 NNW 12 19 29.91 1013 10 16 0.00 0.03
6:48 pm 18:48 Mostly Cloudy with Nearby Thunderstorms 75 24 64 18 69 69 NNW 13 20 29.88 1012 10 16 0.01 0.25
6:51 pm 18:51 Mostly Cloudy with Nearby Thunderstorms 74 23.3 65 18.3 74 74 NW 14 22 29.94 1014 10 16 0.01 0.25
7:06 pm 19:06 Mostly Cloudy with Light Rain 74 23.3 66 18.9 76 76 WNW 13 20 29.88 1012 10 16 0.00 0.03
7:51 pm 19:51 Mostly Clear 75 23.9 64 17.8 69 69 NW 13 20 29.92 1013 10 16 0.01 0.25
8:51 pm 20:51 Clear 77 25 63 17.2 62 62 NE 8 13 29.93 1013 10 16 0.00 0.00
9:51 pm 21:51 Clear 76 24.4 63 17.2 64 64 VRB 6 9 29.92 1013 10 16 0.00 0.00
10:51 pm 22:51 Clear 73 22.8 66 18.9 79 79 NNW 6 9 29.92 1013 10 16 0.00 0.00
11:51 pm 23:51 Clear 71 21.7 67 19.4 87 87 Calm 29.91 1013 10 16 0.00 0.00

Powered by AerisWeather